Wind_Speed
13 13 13 12 11 10 10 10 9 9 9 8 8 8 7 7 7 7 7 6 6 6 6 7 7 7 7 6 6 5 5 5 5 6 6 7 8 8 9 9 8 9
12 11 12 11 10 10 10 9 9 9 9 8 8 8 7 7 7 8 8 7 7 7 7 7 7 8 7 7 7 6 6 6 6 6 5 6 8 7 8 8 8 9
12 11 11 10 10 10 9 9 9 9 9 8 8 8 8 8 8 8 8 8 8 8 7 7 7 8 8 7 7 7 7 7 7 7 5 6 7 7 7 8 7 9
12 11 11 11 10 10 9 9 9 9 8 8 8 8 8 8 8 8 8 8 8 9 8 7 7 8 8 8 8 8 8 7 7 8 7 6 7 6 7 7 7 9
12 12 12 12 12 11 10 9 9 8 8 8 8 9 9 9 9 8 8 8 8 9 9 9 8 8 8 8 8 8 8 8 8 8 7 7 7 7 7 8 8 8
13 13 13 13 12 12 11 10 10 9 9 9 9 9 9 10 10 9 9 9 9 10 10 9 9 9 10 9 9 9 9 9 9 9 8 7 8 8 8 8 8 9
14 14 14 14 13 13 12 11 11 11 11 11 10 11 11 11 11 11 11 11 10 11 11 10 10 10 11 10 10 9 10 10 10 10 9 9 9 9 9 9 9 9
14 14 14 14 14 14 13 13 12 12 12 12 12 12 12 13 13 13 13 13 12 13 12 12 12 12 12 12 11 11 10 10 11 11 10 10 10 10 10 10 10 9
15 15 14 14 14 14 14 13 13 13 13 13 13 13 13 14 14 14 14 14 14 15 14 13 14 13 13 13 13 13 12 12 12 12 12 11 11 11 11 11 10 10
16 15 15 15 15 15 14 14 13 13 13 13 14 14 14 15 15 15 16 17 16 16 16 16 16 16 15 15 15 15 14 13 13 13 14 13 13 12 12 12 11 11
17 16 16 16 16 15 14 14 14 14 14 14 14 15 15 16 16 16 17 18 17 17 18 18 18 17 17 17 16 16 15 15 14 15 15 15 15 15 14 13 13 13
17 17 17 17 17 15 14 13 13 14 15 16 16 16 17 17 17 18 18 19 19 18 18 19 19 19 19 19 18 18 17 16 16 16 16 16 17 16 15 15 15 16
18 19 18 18 17 16 15 14 14 16 17 17 17 17 18 18 18 20 20 20 20 19 17 18 19 19 19 20 20 19 19 19 18 18 17 17 18 17 17 16 16 17
19 19 19 19 18 17 17 17 18 18 19 19 19 18 19 19 20 21 22 22 22 21 18 16 18 19 19 20 20 19 19 19 20 20 19 19 18 17 17 17 16 16
21 21 21 20 19 19 19 19 20 20 20 20 20 20 21 21 20 20 21 23 23 24 21 17 17 17 17 18 18 18 19 19 20 21 21 21 20 18 19 18 17 17
24 23 23 21 21 21 21 21 21 21 21 22 23 24 24 23 21 19 19 21 23 25 24 21 18 16 16 17 18 17 18 18 20 21 22 22 21 19 19 20 19 18
26 26 25 24 23 23 23 23 23 23 23 23 24 24 25 25 24 21 21 23 24 25 24 23 21 18 16 17 18 18 18 18 20 21 22 21 20 19 20 21 20 20
30 29 27 25 24 24 25 26 26 26 26 25 24 24 25 25 25 24 25 26 25 24 24 24 23 21 18 17 18 18 19 19 20 19 20 21 21 21 21 22 22 21
32 30 27 25 25 26 27 29 30 30 30 29 27 26 25 24 24 25 27 28 26 24 24 25 25 23 22 20 19 18 18 19 19 18 19 21 21 21 21 20 22 22
31 28 26 26 26 28 30 31 32 32 33 33 31 30 28 26 25 25 27 27 25 24 24 24 25 25 25 24 22 20 19 19 19 19 20 20 19 20 21 20 21 22
28 27 27 27 28 30 32 33 34 35 35 35 34 33 32 30 28 27 27 26 25 24 24 24 24 25 26 25 24 23 22 21 21 21 21 20 19 19 21 21 21 21
28 29 29 29 29 31 32 32 33 33 34 35 36 35 35 34 32 31 30 28 26 25 25 24 23 24 25 26 26 25 24 23 23 23 23 22 21 21 23 23 22 21
24 26 27 27 27 29 30 30 31 31 31 32 34 36 36 35 35 35 34 32 29 28 27 26 25 25 25 25 26 26 25 24 24 24 24 23 23 23 24 24 23 23
22 24 24 25 25 27 29 30 30 30 31 31 33 36 37 37 37 37 36 35 33 32 30 28 28 28 26 25 25 25 25 24 23 23 24 23 22 23 24 25 25 25
21 21 21 20 21 23 24 24 25 27 30 31 32 33 35 37 38 38 38 35 33 33 31 29 29 29 27 26 26 25 25 24 23 23 23 22 22 23 24 24 25 25
17 16 16 17 18 18 18 18 20 22 23 22 24 28 32 35 35 34 33 32 31 32 32 30 30 30 29 29 29 28 26 24 22 22 23 22 22 24 24 23 24 23
Wind_Direction
192 194 198 201 202 200 199 202 202 205 208 210 215 220 225 233 241 248 250 251 258 259 257 258 260 263 266 272 279 279 278 280 267 254 258 263 262 261 261 261 264 267
188 188 192 196 199 202 203 207 208 210 216 219 225 229 231 238 244 250 257 261 263 264 262 259 262 265 268 271 274 276 276 278 278 271 266 266 265 261 259 261 267 268
192 189 191 193 197 204 208 214 217 217 222 228 233 236 237 241 247 253 259 265 266 267 267 266 266 267 270 274 275 276 279 280 284 284 278 274 277 277 269 267 269 270
203 198 197 200 202 206 210 215 220 221 224 228 233 238 240 244 250 255 260 263 265 267 268 267 268 269 270 272 272 274 278 280 284 287 286 282 282 281 277 275 273 273
210 206 204 208 208 208 212 216 220 225 228 230 234 238 242 246 250 254 257 259 260 262 264 265 265 267 267 267 268 270 273 275 278 282 284 281 274 271 272 273 274 275
210 209 209 213 212 212 216 220 223 228 233 237 241 243 245 249 253 254 256 256 256 259 263 264 265 266 268 268 268 269 271 274 276 277 278 276 272 270 270 270 272 277
212 212 213 216 218 219 221 225 230 232 236 240 244 249 251 253 255 256 257 257 258 260 262 264 265 265 268 271 270 270 272 273 274 276 276 274 274 273 273 274 274 276
214 215 216 219 222 226 228 229 234 236 239 242 244 248 252 255 257 258 259 260 259 259 259 260 263 264 265 268 270 271 272 273 274 275 275 274 273 272 271 271 273 276
215 216 217 221 224 229 232 233 237 238 240 243 246 249 252 255 258 259 261 261 260 260 260 259 260 263 265 266 269 271 271 273 276 276 274 273 272 271 268 268 272 274
216 219 219 223 225 228 230 233 237 240 244 245 246 249 253 257 260 260 260 261 261 262 263 263 262 263 264 264 266 268 268 269 272 273 273 274 273 271 270 271 274 276
215 220 223 225 227 228 230 232 235 239 244 247 248 250 253 256 260 261 260 261 262 261 262 263 264 264 265 265 264 265 266 266 267 267 269 271 271 271 273 274 274 273
219 221 227 231 232 232 236 241 246 247 247 247 248 249 250 252 256 258 261 263 262 262 262 263 262 261 262 264 263 263 264 263 263 262 263 265 266 265 265 265 265 266
225 226 229 234 236 237 239 244 251 254 255 259 261 259 257 259 261 260 260 260 260 259 259 261 262 259 258 260 261 262 263 263 264 265 266 267 267 266 265 265 266 268
228 231 232 234 236 239 242 244 248 252 256 263 269 270 268 269 272 271 268 267 266 263 257 255 257 254 255 258 260 261 264 266 268 269 270 270 271 273 274 272 270 272
233 235 238 238 238 241 242 244 248 251 254 258 262 265 265 267 272 275 274 273 273 269 263 259 257 254 256 261 261 262 263 264 266 268 269 270 271 274 275 273 269 268
237 239 242 242 242 244 245 245 248 251 253 256 259 261 261 262 265 266 266 270 274 273 272 273 271 264 262 264 264 263 263 263 262 262 263 264 266 269 271 270 267 265
242 241 240 239 240 244 248 249 251 252 254 255 258 260 260 260 260 257 256 264 273 277 277 277 276 272 268 266 267 266 264 264 266 266 265 262 261 263 264 265 266 265
249 247 245 244 244 247 249 251 252 253 255 255 256 257 258 259 258 254 254 260 268 272 272 272 274 277 276 271 269 268 268 268 270 275 275 267 261 260 260 263 265 264
253 253 255 257 257 255 255 256 256 257 257 257 256 256 256 256 255 253 255 259 262 262 264 268 272 275 274 271 267 267 270 271 272 275 274 268 265 263 263 266 269 267
252 254 257 259 261 261 260 259 260 260 260 259 258 257 256 255 254 252 253 255 255 255 256 261 267 271 272 270 269 268 268 269 270 269 268 269 271 273 275 278 278 277
256 258 259 260 262 265 266 264 262 261 260 259 258 258 256 255 254 252 251 250 249 249 251 255 262 269 270 268 267 268 268 267 267 268 269 271 273 274 277 280 281 283
265 265 265 266 266 267 269 269 267 265 265 262 259 257 256 255 254 252 250 250 249 248 250 253 259 267 269 267 266 268 270 269 270 272 274 274 273 273 274 276 278 282
273 268 265 266 267 267 269 271 271 272 273 266 258 255 255 254 254 254 253 252 251 249 248 251 255 260 264 266 266 266 267 268 270 274 276 276 277 277 276 277 280 284
271 268 267 268 269 271 272 272 272 273 273 267 258 254 253 253 252 253 253 253 252 251 250 250 252 254 257 262 266 265 264 266 270 274 277 279 279 279 280 282 284 286
268 270 272 272 273 273 273 273 273 271 270 268 261 253 253 254 253 253 253 252 253 256 256 254 252 252 252 256 260 263 263 266 270 275 278 281 282 280 281 283 286 285
270 272 271 269 271 270 269 273 274 273 276 280 272 258 252 252 254 255 256 254 254 258 260 258 254 252 253 254 256 260 263 265 270 275 280 282 281 281 283 284 284 283
Height
3196 3197 3198 3200 3201 3202 3203 3204 3205 3207 3208 3209 3210 3211 3212 3213 3214 3215 3216 3217 3218 3219 3219 3220 3221 3222 3223 3223 3224 3225 3225 3225 3226 3226 3227 3227 3227 3228 3228 3228 3229 3230
3195 3196 3198 3199 3200 3202 3203 3204 3205 3206 3207 3208 3210 3211 3212 3213 3214 3215 3216 3216 3217 3218 3219 3219 3220 3221 3222 3223 3224 3224 3225 3225 3226 3226 3226 3226 3227 3227 3227 3227 3228 3228
3195 3196 3197 3198 3200 3201 3202 3203 3205 3206 3207 3208 3209 3210 3211 3212 3213 3214 3215 3216 3216 3217 3218 3219 3219 3220 3221 3222 3223 3223 3224 3225 3225 3225 3226 3226 3226 3226 3226 3227 3227 3227
3194 3196 3197 3198 3199 3200 3202 3203 3204 3205 3206 3207 3208 3209 3210 3211 3212 3213 3214 3215 3215 3216 3217 3217 3218 3219 3220 3221 3222 3222 3223 3224 3224 3224 3225 3225 3226 3226 3226 3226 3226 3227
3194 3195 3196 3197 3198 3200 3201 3202 3203 3205 3206 3207 3208 3209 3209 3210 3211 3212 3213 3213 3214 3215 3215 3216 3217 3218 3219 3219 3220 3221 3222 3222 3223 3223 3224 3224 3225 3225 3225 3225 3226 3226
3193 3194 3195 3197 3198 3199 3200 3201 3203 3204 3205 3206 3207 3208 3209 3209 3210 3211 3212 3212 3213 3214 3214 3215 3216 3216 3217 3218 3219 3220 3220 3221 3222 3222 3223 3223 3223 3224 3224 3225 3225 3225
3192 3193 3194 3196 3197 3198 3199 3201 3202 3203 3204 3205 3206 3207 3208 3208 3209 3210 3210 3211 3212 3212 3213 3214 3214 3215 3216 3217 3217 3218 3219 3220 3220 3221 3221 3222 3223 3223 3223 3224 3224 3224
3191 3192 3194 3195 3196 3197 3198 3200 3201 3202 3203 3204 3205 3206 3206 3207 3208 3208 3209 3210 3210 3211 3212 3212 3213 3214 3214 3215 3216 3217 3218 3218 3219 3219 3220 3221 3221 3222 3222 3222 3223 3223
3189 3191 3192 3194 3195 3196 3197 3198 3200 3201 3202 3203 3203 3204 3205 3206 3206 3207 3208 3208 3209 3210 3210 3211 3212 3212 3213 3214 3214 3215 3216 3217 3217 3218 3218 3219 3220 3220 3221 3221 3222 3222
3188 3190 3191 3192 3194 3195 3196 3197 3198 3199 3200 3201 3202 3203 3203 3204 3205 3205 3206 3207 3208 3208 3209 3210 3210 3211 3211 3212 3213 3213 3214 3215 3216 3216 3217 3217 3218 3219 3219 3219 3220 3220
3186 3188 3190 3191 3192 3193 3195 3196 3197 3198 3199 3199 3200 3201 3202 3203 3203 3204 3204 3205 3206 3207 3207 3208 3209 3209 3210 3210 3211 3211 3212 3213 3214 3214 3215 3216 3216 3217 3217 3218 3218 3218
3185 3186 3188 3189 3191 3192 3194 3195 3196 3197 3197 3197 3198 3199 3200 3201 3201 3201 3202 3203 3203 3204 3205 3206 3206 3207 3208 3208 3209 3210 3210 3211 3212 3212 3213 3214 3214 3215 3215 3215 3216 3216
3184 3185 3186 3188 3189 3191 3192 3193 3194 3195 3195 3196 3197 3198 3198 3199 3200 3200 3200 3200 3201 3202 3202 3203 3204 3205 3205 3206 3207 3208 3209 3209 3210 3211 3211 3212 3212 3212 3212 3213 3213 3213
3182 3183 3185 3186 3188 3189 3190 3191 3192 3193 3193 3194 3195 3196 3196 3198 3199 3200 3200 3199 3199 3200 3199 3198 3199 3201 3203 3204 3205 3206 3207 3207 3208 3209 3210 3210 3210 3211 3211 3211 3212 3212
3180 3181 3183 3184 3186 3187 3188 3189 3190 3191 3192 3192 3193 3193 3194 3196 3197 3198 3199 3199 3199 3198 3196 3194 3196 3199 3201 3202 3203 3204 3205 3205 3205 3206 3207 3207 3208 3209 3209 3209 3210 3210
3178 3179 3181 3182 3184 3185 3186 3187 3188 3188 3189 3190 3190 3191 3192 3193 3194 3195 3196 3196 3196 3195 3195 3195 3196 3198 3200 3200 3201 3202 3202 3203 3203 3203 3203 3204 3205 3206 3206 3207 3207 3207
3176 3177 3179 3179 3180 3182 3183 3184 3185 3186 3187 3187 3188 3189 3189 3190 3192 3193 3193 3193 3193 3193 3195 3195 3196 3196 3198 3198 3199 3200 3200 3200 3201 3201 3201 3202 3202 3203 3204 3204 3205 3205
3173 3175 3178 3178 3178 3179 3181 3181 3182 3183 3184 3184 3185 3186 3187 3188 3189 3190 3190 3190 3190 3191 3192 3193 3194 3195 3196 3196 3197 3197 3198 3198 3199 3199 3200 3200 3200 3200 3201 3201 3202 3202
3171 3174 3178 3178 3177 3178 3178 3179 3180 3180 3180 3181 3182 3183 3184 3185 3186 3187 3187 3187 3188 3188 3189 3190 3192 3193 3194 3195 3195 3195 3196 3196 3196 3196 3196 3196 3197 3197 3198 3199 3200 3201
3169 3173 3175 3175 3175 3175 3175 3176 3177 3177 3177 3177 3178 3180 3181 3182 3183 3183 3183 3184 3185 3185 3186 3187 3188 3190 3192 3193 3193 3193 3193 3193 3193 3193 3193 3194 3195 3196 3196 3197 3199 3199
3167 3169 3170 3171 3172 3171 3171 3171 3172 3173 3174 3174 3175 3176 3177 3178 3180 3180 3180 3181 3182 3182 3182 3184 3185 3187 3189 3190 3191 3192 3191 3191 3190 3190 3191 3193 3194 3194 3194 3194 3195 3197
3164 3165 3166 3167 3168 3168 3168 3168 3168 3170 3171 3171 3171 3172 3173 3174 3176 3177 3177 3178 3179 3179 3179 3180 3182 3184 3186 3188 3188 3189 3189 3188 3188 3188 3189 3190 3191 3191 3192 3192 3193 3195
3161 3161 3162 3162 3163 3164 3164 3164 3165 3166 3166 3166 3166 3167 3168 3169 3171 3173 3174 3175 3175 3175 3175 3177 3179 3181 3183 3185 3185 3186 3186 3186 3186 3186 3186 3186 3187 3187 3188 3189 3190 3191
3157 3157 3158 3159 3160 3160 3161 3160 3160 3160 3159 3159 3160 3161 3162 3164 3166 3168 3169 3171 3171 3171 3173 3176 3176 3177 3179 3181 3182 3183 3183 3183 3183 3184 3184 3184 3184 3184 3184 3185 3186 3187
3154 3155 3156 3157 3157 3157 3157 3157 3156 3155 3154 3154 3155 3156 3158 3160 3162 3163 3164 3166 3167 3168 3171 3173 3173 3174 3176 3177 3178 3179 3180 3180 3181 3181 3181 3181 3182 3181 3181 3183 3183 3183
3152 3153 3153 3153 3153 3154 3154 3153 3152 3152 3152 3153 3153 3153 3154 3155 3156 3159 3161 3163 3164 3166 3168 3169 3170 3170 3172 3173 3175 3175 3176 3177 3178 3178 3178 3178 3178 3178 3179 3180 3180 3181